Location: Rancho Del Sol Observatory
(38.7214°N, 120.6350°W)
Time: 06:10:23
(UTC-08:00)

Courier 1B - Pass Details

Date: 22 January 2020
Orbit: 962 x 1209 km, 28.3° (Epoch: 28 February)

Event Time Altitude Azimuth Distance (km) Brightness Sun altitude
Exits shadow 05:10:08 24° 221° (SW) 2,191 9.0 -24.4°
Maximum altitude 05:13:45 37° 174° (S) 1,750 8.9 -23.7°
Drops below altitude 10° 05:20:48 10° 110° (ESE) 3,138 11.2 -22.3°
Sets 05:23:54 0° 103° (ESE) 4,106 12.3 -21.7°
